Date String (YYYY-MM-DD hh:mm:ss) UTC,Instrument flags,Ambient pressure (hPa),Sample flow (lpm),Bypass flow (lpm),Sample temperature (°C),Ambient temperature (°C),ASC tube jacket temperature (°C),LED temperature (°C),Box temperature (°C),Sample RH (%),Span deviation,Mass concentration (μg/m³),Mass concentration (μg/m³),Mass concentration (μg/m³)
DateTimeUTC,F1_M11,P_M11,Q1_M11,Q2_M11,T1_M11,T2_M11,T3_M11,T4_M11,T5_M11,U1_M11,ZSPAN_M11,X2_M11,X0_M11,X1_M11
2021-12-14 13:00:00,,0822.0,5.01,0.00,24.4,23.6,00.0,33.4,26.2,07.4,-000.1,0004.89,0014.26,0003.58
2021-12-14 13:01:00,,0822.0,4.99,0.00,24.4,23.6,00.0,33.4,26.1,07.5,-000.7,0005.04,0013.94,0003.72
2021-12-14 13:02:00,,0822.0,5.01,0.00,24.4,23.6,00.0,33.4,26.1,07.5,0000.4,0005.09,0014.10,0003.76
2021-12-14 13:03:00,,0822.0,5.00,0.00,24.4,23.6,00.0,33.4,26.1,07.5,0000.6,0005.07,0014.23,0003.75
2021-12-14 13:04:00,,0821.9,5.02,0.00,24.4,23.5,00.0,33.4,26.1,07.5,0000.7,0004.97,0014.05,0003.72
2021-12-14 13:05:00,,0822.1,4.99,0.00,24.4,23.5,00.0,33.4,26.1,07.4,0000.9,0004.83,0013.48,0003.66
2021-12-14 13:06:00,,0822.1,5.00,0.00,24.4,23.6,00.0,33.4,26.1,07.3,0001.1,0004.84,0013.63,0003.63
2021-12-14 13:07:00,,0822.1,5.01,0.00,24.4,23.6,00.0,33.4,26.1,07.4,0001.2,0004.69,0013.50,0003.56
2021-12-14 13:08:00,,0822.0,4.99,0.00,24.4,23.6,00.0,33.4,26.1,07.5,0000.6,0004.53,0013.50,0003.49
2021-12-14 13:09:00,,0821.9,5.01,0.00,24.4,23.6,00.0,33.4,26.1,07.5,0001.6,0004.43,0012.87,0003.47
2021-12-14 13:10:00,,0821.9,5.00,0.00,24.4,23.6,00.0,33.4,26.2,07.4,0000.6,0004.37,0012.46,0003.42
2021-12-14 13:11:00,,0821.8,4.99,0.00,24.4,23.6,00.0,33.4,26.2,07.4,0000.0,0004.24,0011.42,0003.32
2021-12-14 13:12:00,,0821.9,5.01,0.00,24.4,23.6,00.0,33.4,26.2,07.4,0000.0,0004.19,0011.20,0003.26
2021-12-14 13:13:00,,0822.0,5.00,0.00,24.4,23.6,00.0,33.4,26.1,07.3,0000.0,0004.29,0011.73,0003.32
2021-12-14 13:14:00,,0822.1,5.01,0.00,24.4,23.6,00.0,33.4,26.1,07.3,0000.0,0004.45,0012.07,0003.41
2021-12-14 13:15:00,,0822.1,4.99,0.00,24.4,23.6,00.0,33.4,26.2,07.3,0000.0,0004.59,0013.01,0003.49
2021-12-14 13:16:00,,0822.0,5.01,0.00,24.4,23.6,00.0,33.4,26.2,07.3,0000.0,0004.73,0013.93,0003.56
2021-12-14 13:17:00,,0821.9,4.99,0.00,24.4,23.6,00.0,33.4,26.2,07.3,0000.0,0004.73,0013.77,0003.58
2021-12-14 13:18:00,,0821.8,5.00,0.00,24.4,23.6,00.0,33.4,26.2,07.3,0000.0,0004.82,0013.74,0003.60
2021-12-14 13:19:00,,0822.3,5.00,0.00,24.4,23.6,00.0,33.4,26.2,07.4,0000.0,0004.93,0014.09,0003.60
2021-12-14 13:20:00,,0822.0,5.00,0.00,24.4,23.5,00.0,33.4,26.2,07.4,0000.0,0004.94,0014.25,0003.56
2021-12-14 13:21:00,,0822.1,5.01,0.00,24.4,23.5,00.0,33.4,26.2,07.4,0000.0,0004.88,0015.58,0003.51
2021-12-14 13:22:00,,0822.1,4.99,0.00,24.4,23.5,00.0,33.4,26.2,07.4,0000.0,0004.89,0016.28,0003.47
2021-12-14 13:23:00,,0822.0,5.00,0.00,24.4,23.5,00.0,33.4,26.1,07.4,0000.0,0004.87,0016.32,0003.45
2021-12-14 13:24:00,,0822.1,5.00,0.00,24.4,23.5,00.0,33.3,26.1,07.3,0000.0,0004.83,0016.01,0003.40
2021-12-14 13:25:00,,0822.1,4.99,0.00,24.4,23.5,00.0,33.3,26.1,07.3,0000.0,0004.76,0016.16,0003.37
2021-12-14 13:26:00,,0822.1,5.01,0.00,24.4,23.5,00.0,33.3,26.1,07.3,0000.0,0004.70,0015.59,0003.35
2021-12-14 13:27:00,,0822.1,5.00,0.00,24.3,23.5,00.0,33.3,26.1,07.3,0000.0,0004.64,0015.13,0003.34
2021-12-14 13:28:00,,0822.1,5.00,0.00,24.3,23.5,00.0,33.3,26.0,07.5,0000.0,0004.57,0015.25,0003.32
2021-12-14 13:29:00,,0822.2,5.00,0.00,24.3,23.5,00.0,33.3,26.0,07.6,0000.0,0004.55,0015.18,0003.33
2021-12-14 13:30:00,,0822.3,5.01,0.00,24.3,23.4,00.0,33.3,25.9,08.0,0000.0,0004.63,0015.41,0003.42
2021-12-14 13:31:00,,0822.3,4.99,0.00,24.2,23.4,00.0,33.3,25.9,08.0,0000.0,0004.72,0016.80,0003.51
2021-12-14 13:32:00,,0822.2,5.01,0.00,24.2,23.4,00.0,33.3,25.9,08.0,0000.0,0004.89,0016.81,0003.60
2021-12-14 13:33:00,,0822.3,5.00,0.00,24.2,23.3,00.0,33.3,25.9,07.8,0000.0,0004.98,0017.03,0003.66
2021-12-14 13:34:00,,0822.5,5.00,0.00,24.2,23.3,00.0,33.3,25.9,07.6,0000.0,0005.10,0017.86,0003.71
2021-12-14 13:35:00,,0822.5,5.01,0.00,24.1,23.3,00.0,33.3,25.8,08.2,0000.0,0005.34,0018.46,0003.83
2021-12-14 13:36:00,,0822.4,5.00,0.00,24.1,23.2,00.0,33.2,25.7,08.2,0000.0,0005.58,0019.50,0003.99
2021-12-14 13:37:00,,0822.3,4.99,0.00,24.0,23.2,00.0,33.2,25.7,08.3,0000.0,0005.80,0020.23,0004.13
2021-12-14 13:38:00,,0822.3,4.99,0.00,24.0,23.2,00.0,33.2,25.7,08.3,0000.0,0005.99,0020.83,0004.24
2021-12-14 13:39:00,,0822.3,5.00,0.00,24.0,23.2,00.0,33.2,25.7,08.4,0000.0,0006.20,0022.00,0004.35
2021-12-14 13:40:00,,0822.3,5.00,0.00,24.0,23.2,00.0,33.2,25.7,08.3,0000.0,0006.34,0022.58,0004.45
2021-12-14 13:41:00,,0822.4,4.99,0.00,24.0,23.2,00.0,33.1,25.7,08.2,-000.2,0006.36,0022.50,0004.48
2021-12-14 13:42:00,,0822.4,4.99,0.00,24.0,23.2,00.0,33.1,25.7,08.1,-000.6,0006.43,0021.10,0004.48
2021-12-14 13:43:00,,0822.4,5.02,0.00,24.0,23.2,00.0,33.1,25.6,08.0,-000.5,0006.45,0020.58,0004.47
2021-12-14 13:44:00,,0822.4,4.98,0.00,24.0,23.1,00.0,33.1,25.6,08.1,-000.6,0006.51,0020.08,0004.50
2021-12-14 13:45:00,,0822.4,5.00,0.00,23.9,23.1,00.0,33.1,25.5,08.1,-001.1,0006.56,0019.92,0004.54
2021-12-14 13:46:00,,0822.4,5.01,0.00,23.9,23.1,00.0,33.1,25.5,08.1,-000.9,0006.58,0021.23,0004.55
2021-12-14 13:47:00,,0822.4,5.00,0.00,23.9,23.1,00.0,33.0,25.5,08.0,-001.0,0006.49,0020.62,0004.49
2021-12-14 13:48:00,,0822.4,5.01,0.00,23.9,23.1,00.0,33.0,25.5,08.0,-000.4,0006.51,0020.75,0004.45
2021-12-14 13:49:00,,0822.3,5.00,0.00,23.9,23.1,00.0,33.0,25.5,08.0,-000.1,0006.51,0020.37,0004.40
2021-12-14 13:50:00,,0822.2,4.99,0.00,23.9,23.1,00.0,33.0,25.5,07.8,0002.5,0006.48,0019.42,0004.35
2021-12-14 13:51:00,,0822.2,5.01,0.00,23.9,23.1,00.0,33.0,25.5,07.7,0001.9,0006.40,0018.98,0004.29
2021-12-14 13:52:00,,0822.2,5.01,0.00,23.9,23.1,00.0,33.0,25.5,07.8,0003.0,0006.34,0019.93,0004.24
2021-12-14 13:53:00,,0822.2,5.00,0.00,23.9,23.1,00.0,33.0,25.5,08.0,0003.0,0006.35,0020.22,0004.24
2021-12-14 13:54:00,,0822.2,4.99,0.00,23.9,23.1,00.0,33.0,25.5,07.8,0006.1,0006.30,0019.97,0004.22
2021-12-14 13:55:00,,0822.2,5.01,0.00,23.9,23.0,00.0,33.0,25.5,07.8,0006.5,0006.21,0020.68,0004.18
2021-12-14 13:56:00,,0822.3,4.99,0.00,23.9,23.1,00.0,33.0,25.5,08.0,0002.2,0006.16,0020.46,0004.17
2021-12-14 13:57:00,,0822.3,5.02,0.00,23.9,23.0,00.0,33.0,25.5,07.8,0000.9,0006.07,0019.01,0004.15
2021-12-14 13:58:00,,0822.2,5.00,0.00,23.9,23.0,00.0,32.9,25.5,07.7,0004.7,0006.07,0019.13,0004.11
2021-12-14 13:59:00,,0822.1,5.00,0.00,23.9,23.0,00.0,32.9,25.5,07.7,0005.5,0005.99,0018.71,0004.09
